When you browse on this site, cookies collect data to enhance your experience and personalize the content and advertising you see.
Visit our Privacy Policy to learn more. By continuing to use the site, you agree to this use of cookies and data.
  • In Lithuania
  • List of Countries
  • For 7 days
  • Water Temperature
  • Weather Map
  • Weather Widgets
  • user-avatar
    Login

    Hourly Weather Stama

    Today, 23 February, Sunday

    Time Temperature Precipitation Wind Pressure Humidity
    00:00 +3°C° 0 mm 7 mps 739 mmHg 71%
    01:00 +3°C° 0 mm 5 mps 739 mmHg 67%
    02:00 +2°C° 0.1 mm 6 mps 739 mmHg 69%
    03:00 +2°C° 0.1 mm 7 mps 739 mmHg 71%
    04:00 +1°C° 0.1 mm 8 mps 739 mmHg 73%
    05:00 +1°C° 0 mm 8 mps 739 mmHg 72%
    06:00 0°C° 0 mm 8 mps 739 mmHg 72%
    07:00 0°C° 0 mm 7 mps 740 mmHg 73%
    08:00 +1°C° 0 mm 8 mps 740 mmHg 70%
    09:00 +1°C° 0 mm 8 mps 739 mmHg 67%
    10:00 +2°C° 0 mm 9 mps 739 mmHg 64%
    11:00 +2°C° 0.1 mm 9 mps 739 mmHg 63%
    12:00 +4°C° 0.1 mm 8 mps 739 mmHg 62%
    13:00 +4°C° 0.1 mm 8 mps 739 mmHg 60%
    14:00 +4°C° 0 mm 7 mps 738 mmHg 62%
    15:00 +3°C° 0 mm 5 mps 737 mmHg 63%
    16:00 +4°C° 0 mm 4 mps 736 mmHg 65%
    17:00 +4°C° 0 mm 4 mps 735 mmHg 69%
    18:00 +3°C° 0 mm 3 mps 735 mmHg 74%
    19:00 +3°C° 0 mm 2 mps 734 mmHg 78%
    20:00 +3°C° 0.3 mm 2 mps 733 mmHg 84%
    21:00 +3°C° 0.3 mm 2 mps 732 mmHg 90%
    22:00 +3°C° 0.3 mm 2 mps 731 mmHg 95%
    23:00 +1°C° 1 mm 3 mps 732 mmHg 96%

    Tomorrow, 24 February, Monday

    Time Temperature Precipitation Wind Pressure Humidity
    00:00 0°C° 1 mm 4 mps 733 mmHg 96%
    01:00 0°C° 1 mm 5 mps 733 mmHg 96%
    02:00 0°C° 0.4 mm 5 mps 734 mmHg 92%
    03:00 -1°C° 0.4 mm 6 mps 735 mmHg 89%
    04:00 0°C° 0.4 mm 7 mps 736 mmHg 85%
    05:00 0°C° 0.2 mm 7 mps 737 mmHg 85%
    06:00 0°C° 0.2 mm 7 mps 738 mmHg 85%
    07:00 0°C° 0.2 mm 7 mps 739 mmHg 85%
    08:00 +2°C° 0.1 mm 7 mps 740 mmHg 78%
    09:00 +2°C° 0.1 mm 7 mps 741 mmHg 70%
    10:00 +3°C° 0.1 mm 6 mps 742 mmHg 63%
    11:00 +3°C° 0 mm 6 mps 742 mmHg 61%
    12:00 +4°C° 0 mm 6 mps 743 mmHg 59%
    13:00 +4°C° 0 mm 6 mps 743 mmHg 57%
    14:00 +5°C° 0 mm 5 mps 743 mmHg 59%
    15:00 +4°C° 0 mm 4 mps 744 mmHg 61%
    16:00 +4°C° 0 mm 3 mps 744 mmHg 63%
    17:00 +3°C° 0 mm 3 mps 743 mmHg 68%
    18:00 +2°C° 0 mm 3 mps 743 mmHg 72%
    19:00 +3°C° 0 mm 2 mps 743 mmHg 77%
    20:00 +3°C° 0 mm 2 mps 743 mmHg 79%
    21:00 +1°C° 0 mm 3 mps 742 mmHg 81%
    22:00 +1°C° 0 mm 3 mps 741 mmHg 83%
    23:00 +1°C° 0 mm 3 mps 741 mmHg 84%

    Day after tomorrow, 25 February, Tuesday

    Time Temperature Precipitation Wind Pressure Humidity
    00:00 0°C° 0 mm 4 mps 740 mmHg 85%
    01:00 0°C° 0 mm 4 mps 739 mmHg 86%
    02:00 0°C° 0.5 mm 5 mps 737 mmHg 89%
    03:00 -1°C° 0.5 mm 5 mps 736 mmHg 92%
    04:00 -2°C° 0.5 mm 6 mps 735 mmHg 96%
    05:00 -2°C° 0.4 mm 6 mps 734 mmHg 96%
    06:00 0°C° 0.4 mm 5 mps 733 mmHg 95%
    07:00 0°C° 0.4 mm 5 mps 732 mmHg 95%
    08:00 +2°C° 0.3 mm 5 mps 732 mmHg 94%
    09:00 +3°C° 0.3 mm 5 mps 731 mmHg 92%
    10:00 +5°C° 0.3 mm 5 mps 731 mmHg 90%
    11:00 +4°C° 0.4 mm 6 mps 731 mmHg 82%
    12:00 +5°C° 0.4 mm 6 mps 730 mmHg 74%
    13:00 +6°C° 0.4 mm 7 mps 730 mmHg 66%
    14:00 +5°C° 0 mm 6 mps 730 mmHg 66%
    15:00 +6°C° 0 mm 5 mps 730 mmHg 66%
    16:00 +5°C° 0 mm 5 mps 729 mmHg 66%
    17:00 +4°C° 0 mm 4 mps 729 mmHg 69%
    18:00 +3°C° 0 mm 4 mps 729 mmHg 72%
    19:00 +1°C° 0 mm 4 mps 729 mmHg 75%
    20:00 +1°C° 0 mm 5 mps 729 mmHg 75%
    21:00 +1°C° 0 mm 5 mps 729 mmHg 74%
    22:00 +1°C° 0 mm 6 mps 729 mmHg 74%
    23:00 -1°C° 0 mm 6 mps 729 mmHg 74%

    26 February, Wednesday

    Time Temperature Precipitation Wind Pressure Humidity
    00:00 -1°C° 0 mm 6 mps 729 mmHg 73%
    01:00 -1°C° 0 mm 7 mps 729 mmHg 73%
    02:00 -1°C° 0 mm 7 mps 728 mmHg 74%
    03:00 -2°C° 0 mm 7 mps 728 mmHg 75%
    04:00 -2°C° 0 mm 7 mps 728 mmHg 76%
    05:00 -2°C° 0 mm 7 mps 728 mmHg 76%
    06:00 -2°C° 0 mm 7 mps 728 mmHg 77%
    07:00 -2°C° 0 mm 7 mps 728 mmHg 78%
    08:00 -2°C° 0 mm 7 mps 728 mmHg 75%
    09:00 -1°C° 0 mm 8 mps 728 mmHg 73%
    10:00 0°C° 0 mm 8 mps 729 mmHg 70%
    11:00 +1°C° 0 mm 8 mps 729 mmHg 66%
    12:00 +2°C° 0 mm 7 mps 729 mmHg 62%
    13:00 +3°C° 0 mm 7 mps 729 mmHg 58%
    14:00 +3°C° 0 mm 6 mps 729 mmHg 60%
    15:00 +3°C° 0 mm 5 mps 729 mmHg 62%
    16:00 +4°C° 0 mm 3 mps 729 mmHg 65%
    17:00 +3°C° 0.6 mm 3 mps 729 mmHg 75%
    18:00 +2°C° 0.6 mm 3 mps 729 mmHg 85%
    19:00 +2°C° 0.6 mm 2 mps 730 mmHg 95%
    20:00 +1°C° 1.4 mm 3 mps 730 mmHg 96%
    21:00 0°C° 1.4 mm 3 mps 730 mmHg 96%
    22:00 0°C° 1.4 mm 3 mps 731 mmHg 96%
    23:00 0°C° 0 mm 3 mps 731 mmHg 94%

    27 February, Thursday

    Time Temperature Precipitation Wind Pressure Humidity
    00:00 0°C° 0 mm 3 mps 731 mmHg 93%
    01:00 0°C° 0 mm 3 mps 732 mmHg 92%
    02:00 -1°C° 0 mm 2 mps 732 mmHg 92%
    03:00 -1°C° 0 mm 2 mps 732 mmHg 93%
    04:00 +1°C° 0 mm 1 mps 733 mmHg 93%
    05:00 -2°C° 0.1 mm 2 mps 733 mmHg 92%
    06:00 -2°C° 0.1 mm 2 mps 733 mmHg 91%
    07:00 -2°C° 0.1 mm 2 mps 734 mmHg 89%
    08:00 -2°C° 0 mm 2 mps 734 mmHg 84%
    09:00 -1°C° 0 mm 3 mps 735 mmHg 78%
    10:00 -1°C° 0 mm 3 mps 735 mmHg 73%
    11:00 0°C° 0 mm 3 mps 736 mmHg 69%
    12:00 0°C° 0 mm 3 mps 736 mmHg 64%
    13:00 +2°C° 0 mm 2 mps 736 mmHg 60%
    14:00 +1°C° 0 mm 2 mps 736 mmHg 62%
    15:00 +1°C° 0 mm 2 mps 736 mmHg 63%
    16:00 +1°C° 0 mm 2 mps 737 mmHg 65%
    17:00 +1°C° 0 mm 1 mps 737 mmHg 68%
    18:00 0°C° 0 mm 1 mps 737 mmHg 72%
    19:00 -1°C° 0 mm 0 mps 737 mmHg 76%
    20:00 -1°C° 0 mm 0 mps 737 mmHg 76%
    21:00 -1°C° 0 mm 1 mps 737 mmHg 77%
    22:00 -1°C° 0 mm 1 mps 737 mmHg 77%
    23:00 -3°C° 0 mm 2 mps 736 mmHg 78%

    28 February, Friday

    Time Temperature Precipitation Wind Pressure Humidity
    00:00 -3°C° 0 mm 2 mps 736 mmHg 79%
    01:00 -3°C° 0 mm 2 mps 735 mmHg 79%
    02:00 -4°C° 0 mm 3 mps 735 mmHg 81%
    03:00 -2°C° 0 mm 3 mps 734 mmHg 83%
    04:00 -2°C° 0 mm 3 mps 734 mmHg 85%
    05:00 -3°C° 0 mm 4 mps 733 mmHg 85%
    06:00 -3°C° 0 mm 4 mps 733 mmHg 85%
    07:00 -3°C° 0 mm 4 mps 732 mmHg 85%
    08:00 -4°C° 0.2 mm 5 mps 732 mmHg 86%
    09:00 -2°C° 0.2 mm 5 mps 731 mmHg 87%
    10:00 -3°C° 0.2 mm 6 mps 730 mmHg 87%
    11:00 -3°C° 0.4 mm 6 mps 731 mmHg 88%
    12:00 -2°C° 0.4 mm 5 mps 731 mmHg 89%
    13:00 -1°C° 0.4 mm 5 mps 731 mmHg 90%
    14:00 -2°C° 0.4 mm 5 mps 732 mmHg 90%
    15:00 -2°C° 0.4 mm 5 mps 733 mmHg 90%
    16:00 -2°C° 0.4 mm 5 mps 733 mmHg 90%
    17:00 -2°C° 0 mm 4 mps 734 mmHg 89%
    18:00 -2°C° 0 mm 3 mps 735 mmHg 89%
    19:00 -2°C° 0 mm 3 mps 736 mmHg 88%
    20:00 -3°C° 0 mm 2 mps 737 mmHg 90%
    21:00 -1°C° 0 mm 1 mps 738 mmHg 91%
    22:00 -2°C° 0 mm 1 mps 738 mmHg 92%
    23:00 -2°C° 0 mm 1 mps 738 mmHg 91%
    Show more